TimeMST,TemperatureF,Dew PointF,Humidity,Sea Level PressureIn,VisibilityMPH,Wind Direction,Wind SpeedMPH,Gust SpeedMPH,PrecipitationIn,Events,Conditions,WindDirDegrees,DateUTC
12:54 AM,-0.9,-9.0,69,30.38,10.0,Calm,Calm,-,N/A,,Clear,0,2013-01-05 07:54:00
1:54 AM,-2.0,-8.0,76,30.38,10.0,Calm,Calm,-,N/A,,Clear,0,2013-01-05 08:54:00
2:54 AM,-2.0,-9.0,72,30.40,10.0,Calm,Calm,-,N/A,,Clear,0,2013-01-05 09:54:00
3:54 AM,-2.9,-9.0,75,30.41,10.0,Calm,Calm,-,N/A,,Clear,0,2013-01-05 10:54:00
4:54 AM,-2.9,-9.9,72,30.42,10.0,Calm,Calm,-,N/A,,Clear,0,2013-01-05 11:54:00
5:54 AM,-5.1,-11.0,76,30.52,10.0,Calm,Calm,-,N/A,,Clear,0,2013-01-05 12:54:00
6:54 AM,-4.0,-11.0,72,30.58,10.0,Calm,Calm,-,N/A,,Clear,0,2013-01-05 13:54:00
7:54 AM,-4.0,-11.0,72,30.59,10.0,Calm,Calm,-,N/A,,Clear,0,2013-01-05 14:54:00
8:54 AM,3.9,-7.1,60,30.57,10.0,Calm,Calm,-,N/A,,Clear,0,2013-01-05 15:54:00
9:54 AM,21.0,1.0,42,30.51,10.0,NE,3.5,-,N/A,,Clear,50,2013-01-05 16:54:00
10:54 AM,37.0,-7.1,15,30.46,10.0,Calm,Calm,-,N/A,,Clear,0,2013-01-05 17:54:00
11:54 AM,42.1,-9.9,11,30.41,10.0,Calm,Calm,-,N/A,,Clear,0,2013-01-05 18:54:00
12:54 PM,43.0,3.0,19,30.38,10.0,SSW,4.6,-,N/A,,Clear,210,2013-01-05 19:54:00
1:54 PM,43.0,7.0,23,30.36,10.0,SSW,6.9,-,N/A,,Clear,210,2013-01-05 20:54:00
2:54 PM,44.1,3.9,19,30.36,10.0,SW,3.5,-,N/A,,Clear,220,2013-01-05 21:54:00
4:54 PM,39.0,6.1,26,30.41,10.0,SSW,3.5,-,N/A,,Clear,200,2013-01-05 23:54:00
5:54 PM,24.1,10.0,55,30.49,10.0,NE,3.5,-,N/A,,Clear,40,2013-01-06 00:54:00
6:54 PM,21.0,7.0,55,30.51,10.0,NE,5.8,-,N/A,,Clear,50,2013-01-06 01:54:00
7:54 PM,17.1,7.0,65,30.52,10.0,Calm,Calm,-,N/A,,Clear,0,2013-01-06 02:54:00
8:54 PM,12.0,3.9,70,30.51,10.0,ENE,4.6,-,N/A,,Clear,60,2013-01-06 03:54:00
9:54 PM,12.9,1.0,59,30.41,10.0,NE,4.6,-,N/A,,Clear,50,2013-01-06 04:54:00
10:54 PM,12.0,1.9,64,30.35,10.0,NE,4.6,-,N/A,,Clear,40,2013-01-06 05:54:00
11:54 PM,14.0,-0.0,54,30.30,10.0,ENE,9.2,-,N/A,,Clear,60,2013-01-06 06:54:00